EDT,Max TemperatureF,Mean TemperatureF,Min TemperatureF,Max Dew PointF,MeanDew PointF,Min DewpointF,Max Humidity, Mean Humidity, Min Humidity, Max Sea Level PressureIn, Mean Sea Level PressureIn, Min Sea Level PressureIn, Max VisibilityMiles, Mean VisibilityMiles, Min VisibilityMiles, Max Wind SpeedMPH, Mean Wind SpeedMPH, Max Gust SpeedMPH,PrecipitationIn, CloudCover, Events, WindDirDegrees
2013-5-1,64,54,45,46,34,26,87,52,24,30.37,30.33,30.26,10,10,10,15,9,21,0.00,2,,137
2013-5-2,66,54,43,38,33,27,80,46,23,30.40,30.35,30.29,10,10,10,13,10,21,0.00,0,,129
2013-5-3,62,54,46,40,36,25,69,53,30,30.33,30.28,30.26,10,10,10,16,9,31,0.00,0,,130
2013-5-4,63,52,42,40,37,34,81,61,42,30.27,30.22,30.17,10,10,10,15,10,25,0.00,0,,127
2013-5-5,64,54,43,37,31,15,71,48,16,30.19,30.14,30.10,10,10,10,17,9,24,0.00,0,,122
2013-5-6,60,49,41,52,46,35,100,81,66,30.14,30.10,30.07,15,9,2,17,9,28,0.03,5,Rain,106
2013-5-7,61,56,53,54,51,48,100,88,63,30.07,30.03,29.97,10,8,2,15,9,23,0.23,8,Rain,81
2013-5-8,66,57,50,54,49,42,100,84,45,30.01,29.97,29.92,10,9,2,14,8,23,0.51,7,Rain-Thunderstorm,117
2013-5-9,66,58,50,55,51,47,100,84,56,30.04,29.98,29.91,10,8,2,14,8,17,0.11,6,Rain,264
2013-5-10,71,62,55,55,53,48,94,79,55,30.04,29.94,29.85,10,8,2,14,8,24,0.33,6,Rain-Thunderstorm,217
2013-5-11,57,52,48,56,52,44,100,95,86,29.85,29.81,29.78,10,5,0,15,9,22,0.45,8,Fog-Rain,257
2013-5-12,48,42,36,45,33,21,100,72,40,30.02,29.87,29.78,10,9,2,22,14,43,0.04,6,Rain,280
2013-5-13,46,38,32,28,24,20,87,62,40,30.18,30.08,29.98,10,10,10,20,10,26,0.00,6,,299
2013-5-14,53,40,28,33,26,20,75,54,36,30.20,30.12,29.99,10,10,10,10,5,17,0.01,4,Rain,217
2013-5-15,80,63,46,57,49,32,77,57,39,29.96,29.84,29.74,10,10,8,24,11,36,0.03,4,Rain-Thunderstorm,235
2013-5-16,72,64,57,58,54,41,94,73,35,29.99,29.88,29.78,10,9,4,18,11,28,0.14,5,Rain,255
2013-5-17,75,63,53,55,52,46,100,78,37,30.14,30.08,30.00,10,6,1,14,4,18,0.00,2,,270
2013-5-18,69,60,52,57,50,39,96,73,55,30.18,30.16,30.13,10,8,1,12,6,20,0.00,4,,117
2013-5-19,62,58,53,58,55,53,100,95,84,30.19,30.15,30.09,10,4,0,14,7,20,0.00,8,Fog,140
2013-5-20,78,68,59,63,59,57,94,79,55,30.11,30.05,29.98,10,9,6,13,8,,0.00,5,Rain-Thunderstorm,180
2013-5-21,82,72,62,64,61,57,94,71,44,30.04,29.95,29.87,10,9,5,10,7,17,0.00,2,,225
2013-5-22,82,72,63,61,57,54,83,67,42,29.93,29.88,29.82,10,9,2,14,8,39,0.12,3,Rain-Thunderstorm,218
2013-5-23,72,64,55,59,56,53,96,84,51,29.90,29.85,29.78,10,8,1,23,9,31,0.44,7,Rain-Thunderstorm,242
2013-5-24,54,45,35,54,37,26,100,87,65,30.25,30.02,29.82,10,6,0,24,16,34,0.05,8,Fog-Rain,305
2013-5-25,55,44,33,32,30,27,89,67,37,30.27,30.23,30.19,10,9,5,23,13,33,0.00,4,,300
2013-5-26,60,47,35,33,30,28,76,53,35,30.27,30.24,30.21,10,10,10,21,11,28,0.00,0,,296
2013-5-27,60,50,41,45,36,29,83,58,37,30.30,30.25,30.17,10,10,10,12,3,,0.01,3,Rain,214
2013-5-28,71,59,48,61,53,43,100,86,61,30.17,30.13,30.06,10,6,1,12,7,25,0.65,6,Rain-Thunderstorm,199
2013-5-29,80,71,63,59,55,53,78,60,40,30.12,30.10,30.06,10,10,10,17,9,28,0.00,0,,234
2013-5-30,82,72,63,61,57,54,75,61,40,30.23,30.18,30.13,10,10,10,12,6,,0.00,1,,231
2013-5-31,82,73,64,61,58,54,78,58,37,30.17,30.11,30.03,10,10,10,10,5,20,0.00,1,Thunderstorm,230